Location: Isle of Man Observatory
(54.1776°N, 4.6264°W)
Time: 15:04:46
(UTC+02:00)

ARIANE 6 FM1 Upper Stage - Pass Details

Date: 23 April 2026
Orbit: 526 x 601 km, 62.0° (Epoch: 19 May)

Event Time Altitude Azimuth Distance (km) Brightness Sun altitude
Rises 01:09:52 0° 307° (NW) 2,683 7.0 -21.9°
Reaches altitude 10° 01:12:05 10° 308° (NW) 1,784 6.0 -22.0°
Maximum altitude 01:16:05 87° 33° (NNE) 535 2.4 -22.1°
Enters shadow 01:16:10 85° 90° (E) 536 2.4 -22.1°
